Flag for Norway Weather past 2 weeks in Fredrikstad, Norway

Now
39 °F

Partly sunny.


Feels Like: 29 °F
Forecast: 37 / 41 °F
Wind: 20 mph from South

Location: Rygge

Current Time: Feb 28, 2015 at 3:43:32 PM

Latest Report: Feb 28, 2015 at 2:50 PM


Visibility: N/A

Pressure: 29.71 "Hg

Humidity: 87%

Dew point: 36 °F

Location of FredrikstadLocation

Historic Weather in Fredrikstad — Graph

°F

Fredrikstad temperature yesterday

Maximum temperature yesterday: 41 °F (at 1:20 PM)
Minimum temperature yesterday: 32 °F (at 10:50 PM)
Average temperature yesterday: 37 °F

Past Weeks' High & Low Weather Summary

 TemperatureHumidityPressure
High45 °F (Feb 18, 7:20 AM)100% (Feb 13, 4:20 PM)30.51 "Hg (Feb 13, 4:20 PM)
Low25 °F (Feb 22, 2:20 AM)42% (Feb 22, 2:20 PM)29.00 "Hg (Feb 23, 12:50 PM)
Average37 °F88%29.76 "Hg
* Reported Feb 13 2:20 PM — Feb 28 2:20 PM, Fredrikstad, Weather by CustomWeather, © 2015

Note: Actual official high and low records may vary slightly from our data, if they occured in-between our weather recording intervals... More about our weather records

Advertising

Fredrikstad weather history for previous 24 hours

 ConditionsComfort  
Time TempWeatherWind HumidityBarometerVisibility
2:20 PM
Sat, Feb 28
39 °FPartly sunny.21 mph87%29.71 "HgN/A
1:50 PM39 °FPartly sunny.18 mph87%29.74 "HgN/A
1:20 PM39 °FPartly sunny.17 mph87%29.74 "HgN/A
12:50 PM39 °FPartly sunny.17 mph87%29.74 "HgN/A
12:20 PM39 °FPartly sunny.18 mph87%29.77 "HgN/A
11:50 AM39 °FPartly sunny.17 mph87%29.77 "HgN/A
11:20 AM39 °FScattered showers. Broken clouds.18 mph87%29.77 "HgN/A
10:50 AM39 °FScattered showers. Broken clouds.14 mph87%29.77 "HgN/A
10:20 AM39 °FScattered showers. Broken clouds.14 mph87%29.80 "HgN/A
9:50 AM39 °FPartly sunny.14 mph87%29.80 "HgN/A
9:20 AM37 °FScattered showers. Broken clouds.10 mph87%29.80 "HgN/A
8:50 AM37 °FScattered showers. Broken clouds.13 mph87%29.80 "HgN/A
8:20 AM37 °FBroken clouds.14 mph87%29.80 "HgN/A
7:50 AM37 °FPartly sunny.9 mph93%29.80 "HgN/A
7:20 AM36 °FLight rain. Partly sunny.7 mph100%29.83 "HgN/A
6:50 AM36 °FPassing clouds.8 mph93%29.83 "HgN/A
6:20 AM34 °FPassing clouds.7 mph93%29.83 "HgN/A
5:50 AM32 °FOvercast.5 mph100%29.83 "HgN/A
5:20 AM32 °FPassing clouds.6 mph93%29.83 "HgN/A
4:50 AM32 °FChilly.7 mph93%29.83 "HgN/A
4:20 AM32 °FChilly.6 mph93%29.86 "HgN/A
3:50 AM34 °FChilly.7 mph87%29.86 "HgN/A
3:20 AM34 °FChilly.7 mph87%29.86 "HgN/A
2:50 AM34 °FChilly.7 mph87%29.86 "HgN/A
2:20 AM34 °FChilly.6 mph87%29.86 "HgN/A
1:50 AM34 °FChilly.5 mph87%29.86 "HgN/A
1:20 AM34 °FChilly.6 mph93%29.86 "HgN/A
12:50 AM34 °FChilly.6 mph93%29.86 "HgN/A
12:20 AM32 °FChilly.5 mph93%29.86 "HgN/A
11:50 PM
Fri, Feb 27
32 °FChilly.5 mph93%29.86 "HgN/A
11:20 PM34 °FClear.6 mph87%29.89 "Hg10 mi
10:50 PM32 °FClear.1 mph93%29.89 "Hg10 mi
9:50 PM34 °FClear.6 mph93%29.89 "Hg10 mi
9:20 PM36 °FClear.6 mph87%29.89 "Hg10 mi
8:50 PM36 °FClear.7 mph87%29.86 "Hg10 mi
8:20 PM36 °FPassing clouds.3 mph93%29.86 "HgN/A
7:50 PM36 °FClear.6 mph93%29.86 "Hg10 mi
7:20 PM36 °FClear.7 mph87%29.86 "Hg10 mi
6:50 PM37 °FPassing clouds.5 mph87%29.86 "HgN/A
6:20 PM37 °FClear.5 mph87%29.86 "Hg10 mi
5:50 PM39 °FClear.5 mph87%29.86 "Hg10 mi
5:20 PM39 °FPassing clouds.6 mph87%29.83 "HgN/A
4:50 PM41 °FPassing clouds.9 mph81%29.83 "HgN/A
4:20 PM41 °FPassing clouds.7 mph81%29.83 "HgN/A
3:50 PM41 °FScattered clouds.9 mph87%29.83 "HgN/A
3:20 PM41 °FScattered clouds.8 mph87%29.80 "HgN/A
Weather by CustomWeather, © 2015

See weather overviewHow to use our weather pages